CW7386 Weather Reports


time (UTC)temp
F
wind
direction
speed
knots
gust
knots
rain 1hr
in
rain 24hr
in
rain mn
in
humidity
%
barometer
mb
20260507031507 57 319 0.9 1.7 0.00 0.00 0.00 78 1020.2
20260507030012 57 264 0.0 0.0 0.00 0.00 0.00 77 1020.1
20260507024518 57 264 0.0 0.0 0.00 0.00 0.00 78 1020.2
20260507023023 57 272 0.0 2.6 0.00 0.00 0.00 77 1020.1
20260507021514 57 263 0.9 2.6 0.00 0.00 0.00 77 1020.1
20260507020010 57 288 0.0 4.3 0.00 0.00 0.00 77 1020.1
20260507014515 57 246 0.9 2.6 0.00 0.00 0.00 78 1020.0
20260507013024 57 222 1.7 3.5 0.00 0.00 0.00 77 1020.0
20260507011506 57 209 1.7 4.3 0.00 0.00 0.00 76 1020.0
20260507010010 56 221 1.7 6.1 0.00 0.00 0.00 76 1020.1
20260507004511 57 236 2.6 7.0 0.00 0.00 0.00 75 1020.2
20260507003026 57 264 1.7 7.8 0.00 0.00 0.00 75 1020.3
20260507001534 57 223 3.5 7.8 0.00 0.00 0.00 74 1020.2
20260507000012 57 222 1.7 5.2 0.00 0.00 0.00 74 1020.1
20260506234514 56 222 2.6 5.2 0.00 0.00 0.00 74 1020.1
20260506233016 57 214 2.6 6.1 0.00 0.00 0.00 73 1020.2
20260506231527 57 270 0.9 6.1 0.00 0.00 0.00 71 1020.3
20260506230025 58 135 2.6 7.8 0.00 0.00 0.00 71 1020.3
20260506224512 58 115 1.7 9.6 0.00 0.00 0.00 72 1020.3
20260506223014 58 248 2.6 8.7 0.00 0.00 0.00 72 1020.3
20260506221522 57 257 2.6 6.1 0.00 0.00 0.00 72 1020.4
20260506220003 57 246 0.9 6.1 0.00 0.00 0.00 74 1020.5
20260506214505 57 180 1.7 4.3 0.00 0.00 0.00 75 1020.4
20260506213005 56 213 3.5 6.1 0.00 0.00 0.00 74 1020.4
20260506211502 57 218 0.9 6.1 0.00 0.00 0.00 76 1020.5
20260506210004 56 159 2.6 4.3 0.00 0.00 0.00 77 1020.4
20260506204503 56 146 0.9 4.3 0.00 0.00 0.00 79 1020.4
20260506203003 56 215 0.9 4.3 0.00 0.00 0.00 80 1020.5
20260506201503 55 147 1.7 6.1 0.00 0.00 0.00 81 1020.4
20260506200002 55 188 0.9 4.3 0.00 0.00 0.00 82 1020.3
20260506194503 55 167 1.7 8.7 0.00 0.00 0.00 84 1020.2
20260506193006 55 246 1.7 4.3 0.00 0.00 0.00 86 1020.1
20260506191502 54 143 0.9 7.0 0.00 0.00 0.00 87 1020.1
20260506190005 55 131 2.6 10.4 0.00 0.00 0.00 83 1020.1
20260506184504 55 169 1.7 6.1 0.00 0.00 0.00 83 1020.0
20260506183005 55 220 0.9 6.1 0.00 0.00 0.00 84 1020.0
20260506181504 54 147 1.7 6.1 0.00 0.00 0.00 85 1020.0
20260506180005 54 238 1.7 6.1 0.00 0.00 0.00 86 1020.0
20260506174506 54 238 2.6 5.2 0.00 0.00 0.00 85 1019.5
20260506173004 55 172 2.6 6.1 0.00 0.00 0.00 85 1019.7
20260506171511 54 170 2.6 7.0 0.00 0.00 0.00 85 1019.9
20260506170004 54 318 0.9 6.1 0.00 0.00 0.00 85 1020.0
20260506164503 54 130 0.9 4.3 0.00 0.00 0.00 85 1019.7
20260506163007 54 275 2.6 5.2 0.00 0.00 0.00 85 1019.7
20260506161505 54 207 2.6 7.8 0.00 0.00 0.00 85 1019.4
20260506160006 54 219 3.5 7.0 0.00 0.00 0.00 86 1019.2
20260506154506 54 205 3.5 6.1 0.00 0.00 0.00 87 1019.0
20260506153006 54 253 1.7 3.5 0.00 0.00 0.00 87 1019.4
20260506151507 54 257 0.9 3.5 0.00 0.00 0.00 87 1019.7
20260506150004 54 121 0.9 4.3 0.00 0.00 0.00 87 1019.3
20260506144506 53 159 1.7 4.3 0.00 0.00 0.00 88 1019.1
20260506143008 53 224 3.5 4.3 0.00 0.00 0.00 87 1019.2
20260506141507 54 169 1.7 3.5 0.00 0.00 0.00 87 1019.0
20260506140007 0 0.0 0.0 0.00 0.00 0.00 1018.9
20260506134506 0 0.0 0.0 0.00 0.00 0.00 1019.1
20260506133009 0 0.0 0.0 0.00 0.00 0.00 1018.8
20260506131516 0 0.0 0.0 0.00 0.00 0.00 1018.7
20260506130009 0 0.0 0.0 0.00 0.00 0.00 1018.7
20260506124507 0 0.0 0.0 0.00 0.00 0.00 1018.6
20260506123011 0 0.0 0.0 0.00 0.00 0.00 1018.6
20260506121510 0 0.0 2.6 0.00 0.00 0.00 85 1018.3
20260506120018 54 145 1.7 3.5 0.00 0.00 0.00 85 1018.3
20260506114512 54 162 0.0 1.7 0.00 0.00 0.00 86 1018.3
20260506113011 54 150 0.0 0.0 0.00 0.00 0.00 86 1018.1
20260506111511 54 237 0.9 2.6 0.00 0.00 0.00 86 1018.0
20260506110012 53 212 0.0 2.6 0.00 0.00 0.00 86 1017.9
20260506104512 54 221 1.7 3.5 0.00 0.00 0.00 86 1017.7
20260506103014 53 202 0.9 2.6 0.00 0.00 0.00 87 1017.6
20260506101513 53 226 0.9 3.5 0.00 0.00 0.00 87 1017.5
20260506100026 53 238 0.0 1.7 0.00 0.00 0.00 88 1017.5
20260506094513 53 210 0.0 0.0 0.00 0.00 0.00 87 1017.3
20260506093018 54 225 0.0 2.6 0.00 0.00 0.00 86 1017.3
20260506091512 54 148 0.0 0.0 0.00 0.00 0.00 85 1017.2
20260506090017 54 148 0.0 0.0 0.00 0.00 0.00 86 1017.2
20260506084523 54 123 0.0 0.0 0.00 0.00 0.00 87 1017.0
20260506083013 54 90 0.0 0.0 0.00 0.00 0.00 87 1016.8
20260506081517 54 61 0.0 0.0 0.00 0.00 0.00 86 1016.7
20260506073014 55 61 0.0 0.0 0.00 0.00 0.00 84 1016.5
20260506071518 55 61 0.0 0.0 0.00 0.00 0.00 84 1016.6
20260506061516 57 61 0.0 0.0 0.00 0.00 0.00 81 1016.3
20260506044503 60 163 0.0 0.0 0.00 0.00 0.00 76 1015.3
20260506043010 60 163 0.0 0.0 0.00 0.00 0.00 75 1015.3
20260506041514 61 163 0.0 0.0 0.00 0.00 0.00 73 1015.2
20260506040033 61 163 0.0 0.0 0.00 0.00 0.00 73 1015.1
20260506034526 62 163 0.0 0.0 0.00 0.00 0.00 72 1015.1
20260506033008 62 163 0.0 0.0 0.00 0.00 0.00 71 1015.0